Sheridan, WY

12:53 AM MST on January 17, 2018 (GMT -0700)
Sheridan County

Weather History for KSHR - September, 2014

Change the Weather History Date:

Tuesday, September 23, 2014

  Actual Average Record
Temperature  
Mean Temperature 66 °F 54 °F  
Max Temperature 83 °F 70 °F 94 °F (1992)
Min Temperature 49 °F 39 °F 21 °F (1926)
Degree Days  
Heating Degree Days 0 11  
Month to date heating degree days 195 154  
Since 1 July heating degree days 245 216  
Cooling Degree Days 1 0  
Month to date cooling degree days 16 26  
Year to date cooling degree days 334 416  
Growing Degree Days 16 (Base 50)    
Moisture  
Dew Point 47 °F    
Average Humidity 52    
Maximum Humidity 77    
Minimum Humidity 26    
Precipitation  
Precipitation 0.00 in 0.06 in 1.17 in (1984)
Month to date precipitation 1.54 1.05  
Year to date precipitation 12.61 11.10  
Sea Level Pressure  
Sea Level Pressure 29.94 in    
Wind  
Wind Speed 7 mph (West)    
Max Wind Speed 23 mph    
Max Gust Speed 27 mph    
Visibility 10 miles    
Events      
T = Trace of Precipitation, MM = Missing Value Source: NWS Daily Summary

Daily Weather History Graph

Daily Weather History Graph

Search for Another Location

Airport or City:

Trip Planner

Search our weather history database for the weather conditions in past years. The results will help you decide how hot, cold, wet, or windy it might be!

Date:

Astronomy

Sep. 23, 2014 Rise Set
Actual Time 6:56 AM MDT 7:03 PM MDT
Civil Twilight 6:27 AM MDT 7:32 PM MDT
Nautical Twilight 5:52 AM MDT 8:06 PM MDT
Astronomical Twilight 5:17 AM MDT 8:41 PM MDT
Moon 6:22 AM MDT (9/23) 6:43 PM MDT (9/23)
Length of Visible Light 13h 05m
Length of Day
12h 07m
Waning Crescent, 0% of the Moon is Illuminated
Sep 23
Waning Crescent
Sep 24
New
Oct 1
First Quarter
Oct 8
Full
Oct 15
Last Quarter

Hourly Weather History & Observations

Time (MDT) Temp. Dew Point Humidity Pressure Visibility Wind Dir Wind Speed Gust Speed Precip Events Conditions
12:53 AM 53.1 °F 46.0 °F 77% 29.88 in 10.0 mi Calm Calm - N/A   Clear
1:53 AM 53.1 °F 45.0 °F 74% 29.88 in 10.0 mi SW 6.9 mph - N/A   Clear
2:53 AM 54.0 °F 45.0 °F 72% 29.87 in 10.0 mi South 6.9 mph - N/A   Clear
3:53 AM 52.0 °F 45.0 °F 77% 29.90 in 10.0 mi SSW 3.5 mph - N/A   Clear
4:53 AM 52.0 °F 44.1 °F 74% 29.91 in 10.0 mi SE 3.5 mph - N/A   Clear
5:53 AM 52.0 °F 45.0 °F 77% 29.91 in 10.0 mi Calm Calm - N/A   Scattered Clouds
6:53 AM 51.1 °F 45.0 °F 80% 29.93 in 10.0 mi Calm Calm - N/A   Overcast
7:53 AM 55.9 °F 46.9 °F 72% 29.94 in 10.0 mi Calm Calm - N/A   Clear
8:53 AM 66.0 °F 46.9 °F 50% 29.93 in 10.0 mi Calm Calm - N/A   Clear
9:53 AM 71.1 °F 48.9 °F 45% 29.94 in 10.0 mi Calm Calm - N/A   Partly Cloudy
10:53 AM 77.0 °F 46.9 °F 34% 29.93 in 10.0 mi NNW 18.4 mph - N/A   Clear
11:53 AM 79.0 °F 48.0 °F 34% 29.93 in 10.0 mi NNW 16.1 mph 21.9 mph N/A   Clear
12:53 PM 80.1 °F 46.9 °F 31% 29.93 in 10.0 mi NW 19.6 mph - N/A   Clear
1:53 PM 81.0 °F 46.9 °F 30% 29.92 in 10.0 mi NNW 18.4 mph 24.2 mph N/A   Clear
2:53 PM 80.1 °F 46.0 °F 30% 29.92 in 10.0 mi NNW 16.1 mph - N/A   Scattered Clouds
3:53 PM 82.0 °F 45.0 °F 27% 29.92 in 10.0 mi NNW 13.8 mph - N/A   Clear
4:53 PM 82.0 °F 46.0 °F 28% 29.92 in 10.0 mi North 9.2 mph - N/A   Clear
5:53 PM 77.0 °F 48.9 °F 37% 29.94 in 10.0 mi NNW 6.9 mph - N/A   Clear
6:53 PM 64.9 °F 50.0 °F 58% 29.98 in 10.0 mi West 4.6 mph - N/A   Clear
7:53 PM 60.1 °F 48.9 °F 67% 29.99 in 10.0 mi South 4.6 mph - N/A   Clear
8:53 PM 59.0 °F 48.0 °F 67% 29.99 in 10.0 mi South 4.6 mph - N/A   Clear
9:53 PM 55.0 °F 46.9 °F 74% 30.00 in 10.0 mi South 4.6 mph - N/A   Clear
10:53 PM 55.0 °F 46.0 °F 72% 29.99 in 10.0 mi Calm Calm - N/A   Clear
11:53 PM 53.1 °F 46.0 °F 77% 30.00 in 10.0 mi Calm Calm - N/A   Clear